Location: Las Navas
(40.6024°N, 4.3345°W)
Time: 01:44:11
(UTC+00:00)

STARLINK-1144 - Pass Details

Date: 03 April 2020
Orbit: 549 x 550 km, 53.0° (Epoch: 27 May)

Event Time Altitude Azimuth Distance (km) Brightness Sun altitude
Rises 19:46:47 0° 310° (NW) 2,728 8.6 -12.3°
Reaches altitude 10° 19:49:02 10° 312° (NW) 1,831 7.4 -12.7°
Maximum altitude 19:53:12 73° 37° (NE) 578 3.6 -13.5°
Enters shadow 19:55:41 23° 119° (ESE) 1,191 4.7 -13.9°
